When you browse on this site, cookies collect data to enhance your experience and personalize the content and advertising you see.
Visit our Privacy Policy to learn more. By continuing to use the site, you agree to this use of cookies and data.
  • En España
  • Lista de países
  • Para 7 días
  • Temperatura del agua
  • El tiempo en el mapa
  • Informadores
  • user-avatar
    Iniciar sesión

    Tiempo cada hora Vatican

    Hoy, 17 Septiembre, Martes

    Tiempo Temperatura Precipitaciones Viento Presión Humedad
    00:00 +24°C° 0 mm 1 mps 762 mmHg 62%
    01:00 +24°C° 0 mm 1 mps 762 mmHg 63%
    02:00 +23°C° 0 mm 1 mps 761 mmHg 63%
    03:00 +23°C° 0 mm 1 mps 761 mmHg 63%
    04:00 +23°C° 0 mm 1 mps 761 mmHg 63%
    05:00 +23°C° 0 mm 1 mps 761 mmHg 61%
    06:00 +23°C° 0 mm 1 mps 761 mmHg 60%
    07:00 +23°C° 0 mm 1 mps 761 mmHg 59%
    08:00 +25°C° 0 mm 1 mps 761 mmHg 53%
    09:00 +26°C° 0 mm 1 mps 761 mmHg 47%
    10:00 +28°C° 0 mm 1 mps 761 mmHg 42%
    11:00 +28°C° 0 mm 1 mps 761 mmHg 42%
    12:00 +29°C° 0 mm 2 mps 761 mmHg 42%
    13:00 +29°C° 0 mm 3 mps 760 mmHg 43%
    14:00 +29°C° 0 mm 3 mps 760 mmHg 45%
    15:00 +28°C° 0 mm 3 mps 760 mmHg 48%
    16:00 +28°C° 0 mm 3 mps 759 mmHg 50%
    17:00 +27°C° 0 mm 3 mps 759 mmHg 55%
    18:00 +26°C° 0 mm 2 mps 760 mmHg 61%
    19:00 +25°C° 0 mm 1 mps 760 mmHg 66%
    20:00 +25°C° 0 mm 1 mps 760 mmHg 67%
    21:00 +25°C° 0 mm 1 mps 760 mmHg 68%
    22:00 +24°C° 0 mm 1 mps 760 mmHg 69%
    23:00 +24°C° 0 mm 1 mps 760 mmHg 70%

    Mañana, 18 Septiembre, Miércoles

    Tiempo Temperatura Precipitaciones Viento Presión Humedad
    00:00 +24°C° 0 mm 1 mps 760 mmHg 71%
    01:00 +23°C° 0 mm 1 mps 760 mmHg 73%
    02:00 +23°C° 0 mm 1 mps 760 mmHg 73%
    03:00 +23°C° 0 mm 1 mps 759 mmHg 74%
    04:00 +23°C° 0 mm 2 mps 759 mmHg 74%
    05:00 +23°C° 0 mm 2 mps 759 mmHg 73%
    06:00 +23°C° 0 mm 2 mps 760 mmHg 71%
    07:00 +24°C° 0 mm 3 mps 760 mmHg 70%
    08:00 +25°C° 0 mm 3 mps 760 mmHg 65%
    09:00 +26°C° 0 mm 3 mps 760 mmHg 60%
    10:00 +28°C° 0 mm 3 mps 760 mmHg 55%
    11:00 +28°C° 0 mm 3 mps 759 mmHg 57%
    12:00 +28°C° 0 mm 3 mps 759 mmHg 59%
    13:00 +28°C° 0 mm 4 mps 759 mmHg 60%
    14:00 +28°C° 0 mm 3 mps 759 mmHg 63%
    15:00 +28°C° 0 mm 3 mps 759 mmHg 66%
    16:00 +27°C° 0 mm 3 mps 758 mmHg 68%
    17:00 +27°C° 0 mm 2 mps 758 mmHg 72%
    18:00 +26°C° 0 mm 2 mps 759 mmHg 75%
    19:00 +26°C° 0 mm 2 mps 759 mmHg 79%
    20:00 +25°C° 0.1 mm 2 mps 759 mmHg 80%
    21:00 +25°C° 0.1 mm 2 mps 759 mmHg 81%
    22:00 +25°C° 0.1 mm 2 mps 760 mmHg 82%
    23:00 +25°C° 0.1 mm 2 mps 760 mmHg 82%

    Pasado mañana, 19 Septiembre, Jueves

    Tiempo Temperatura Precipitaciones Viento Presión Humedad
    00:00 +25°C° 0.1 mm 3 mps 759 mmHg 82%
    01:00 +25°C° 0.1 mm 3 mps 759 mmHg 83%
    02:00 +24°C° 2.1 mm 3 mps 759 mmHg 83%
    03:00 +24°C° 2.1 mm 3 mps 759 mmHg 84%
    04:00 +22°C° 2.1 mm 4 mps 759 mmHg 84%
    05:00 +23°C° 1.4 mm 4 mps 759 mmHg 83%
    06:00 +23°C° 1.4 mm 4 mps 759 mmHg 82%
    07:00 +23°C° 1.4 mm 4 mps 759 mmHg 80%
    08:00 +25°C° 0.3 mm 4 mps 759 mmHg 75%
    09:00 +26°C° 0.3 mm 4 mps 759 mmHg 71%
    10:00 +27°C° 0.3 mm 4 mps 760 mmHg 66%
    11:00 +27°C° 0.1 mm 4 mps 760 mmHg 64%
    12:00 +28°C° 0.1 mm 3 mps 760 mmHg 62%
    13:00 +28°C° 0.1 mm 3 mps 759 mmHg 59%
    14:00 +28°C° 0.4 mm 3 mps 760 mmHg 61%
    15:00 +27°C° 0.4 mm 3 mps 760 mmHg 62%
    16:00 +27°C° 0.4 mm 3 mps 760 mmHg 63%
    17:00 +26°C° 0.4 mm 2 mps 760 mmHg 64%
    18:00 +26°C° 0.4 mm 1 mps 760 mmHg 66%
    19:00 +23°C° 0.4 mm 0 mps 761 mmHg 67%
    20:00 +23°C° 0.2 mm 0 mps 761 mmHg 67%
    21:00 +23°C° 0.2 mm 0 mps 761 mmHg 67%
    22:00 +25°C° 0.2 mm 1 mps 762 mmHg 68%
    23:00 +24°C° 0.2 mm 1 mps 762 mmHg 69%

    20 Septiembre, Viernes

    Tiempo Temperatura Precipitaciones Viento Presión Humedad
    00:00 +24°C° 0.2 mm 1 mps 762 mmHg 70%
    01:00 +23°C° 0.2 mm 2 mps 762 mmHg 72%
    02:00 +23°C° 0.4 mm 2 mps 762 mmHg 73%
    03:00 +23°C° 0.4 mm 2 mps 762 mmHg 74%
    04:00 +21°C° 0.4 mm 2 mps 762 mmHg 75%
    05:00 +21°C° 0.3 mm 2 mps 762 mmHg 74%
    06:00 +21°C° 0.3 mm 2 mps 762 mmHg 73%
    07:00 +21°C° 0.3 mm 2 mps 762 mmHg 71%
    08:00 +24°C° 0 mm 2 mps 762 mmHg 66%
    09:00 +25°C° 0 mm 2 mps 763 mmHg 60%
    10:00 +27°C° 0 mm 2 mps 763 mmHg 55%
    11:00 +27°C° 0 mm 2 mps 763 mmHg 55%
    12:00 +28°C° 0 mm 2 mps 763 mmHg 55%
    13:00 +28°C° 0 mm 2 mps 763 mmHg 55%
    14:00 +28°C° 0 mm 2 mps 763 mmHg 57%
    15:00 +28°C° 0 mm 3 mps 763 mmHg 60%
    16:00 +27°C° 0 mm 3 mps 763 mmHg 62%
    17:00 +26°C° 0 mm 3 mps 763 mmHg 66%
    18:00 +26°C° 0 mm 3 mps 763 mmHg 71%
    19:00 +25°C° 0 mm 3 mps 763 mmHg 75%
    20:00 +24°C° 0 mm 3 mps 763 mmHg 74%
    21:00 +24°C° 0 mm 3 mps 764 mmHg 74%
    22:00 +24°C° 0 mm 3 mps 764 mmHg 73%
    23:00 +24°C° 0 mm 3 mps 764 mmHg 69%

    21 Septiembre, Sábado

    Tiempo Temperatura Precipitaciones Viento Presión Humedad
    00:00 +23°C° 0 mm 2 mps 764 mmHg 64%
    01:00 +23°C° 0 mm 2 mps 764 mmHg 60%
    02:00 +23°C° 0 mm 2 mps 764 mmHg 62%
    03:00 +21°C° 0 mm 2 mps 764 mmHg 65%
    04:00 +21°C° 0 mm 2 mps 764 mmHg 68%
    05:00 +21°C° 0 mm 2 mps 764 mmHg 67%
    06:00 +21°C° 0 mm 2 mps 764 mmHg 66%
    07:00 +21°C° 0 mm 2 mps 764 mmHg 66%
    08:00 +24°C° 0 mm 2 mps 764 mmHg 63%
    09:00 +25°C° 0 mm 2 mps 765 mmHg 60%
    10:00 +27°C° 0 mm 2 mps 765 mmHg 57%
    11:00 +27°C° 0 mm 2 mps 765 mmHg 57%
    12:00 +27°C° 0 mm 2 mps 765 mmHg 58%
    13:00 +27°C° 0 mm 3 mps 765 mmHg 58%
    14:00 +27°C° 0 mm 2 mps 765 mmHg 58%
    15:00 +27°C° 0 mm 2 mps 764 mmHg 59%
    16:00 +27°C° 0 mm 2 mps 764 mmHg 59%
    17:00 +26°C° 0 mm 1 mps 764 mmHg 62%
    18:00 +25°C° 0 mm 1 mps 765 mmHg 65%
    19:00 +25°C° 0 mm 1 mps 765 mmHg 67%
    20:00 +24°C° 0 mm 1 mps 765 mmHg 68%
    21:00 +24°C° 0 mm 1 mps 765 mmHg 68%
    22:00 +24°C° 0 mm 1 mps 765 mmHg 69%
    23:00 +24°C° 0 mm 1 mps 765 mmHg 69%

    22 Septiembre, Domingo

    Tiempo Temperatura Precipitaciones Viento Presión Humedad
    00:00 +24°C° 0 mm 1 mps 765 mmHg 70%
    01:00 +23°C° 0 mm 1 mps 765 mmHg 70%
    02:00 +23°C° 0 mm 1 mps 765 mmHg 71%
    03:00 +23°C° 0 mm 2 mps 765 mmHg 71%
    04:00 +23°C° 0 mm 2 mps 765 mmHg 72%
    05:00 +22°C° 0 mm 3 mps 765 mmHg 72%
    06:00 +22°C° 0 mm 3 mps 765 mmHg 72%
    07:00 +22°C° 0 mm 4 mps 765 mmHg 71%
    08:00 +24°C° 0 mm 3 mps 765 mmHg 66%
    09:00 +25°C° 0 mm 3 mps 766 mmHg 61%
    10:00 +27°C° 0 mm 3 mps 766 mmHg 56%
    11:00 +27°C° 0 mm 3 mps 766 mmHg 55%
    12:00 +28°C° 0 mm 3 mps 766 mmHg 54%
    13:00 +28°C° 0 mm 4 mps 765 mmHg 52%
    14:00 +28°C° 0 mm 3 mps 765 mmHg 54%
    15:00 +27°C° 0 mm 3 mps 765 mmHg 55%
    16:00 +27°C° 0 mm 3 mps 765 mmHg 57%
    17:00 +26°C° 0 mm 3 mps 765 mmHg 60%
    18:00 +26°C° 0 mm 3 mps 765 mmHg 63%
    19:00 +25°C° 0 mm 2 mps 765 mmHg 67%
    20:00 +25°C° 0 mm 2 mps 765 mmHg 66%
    21:00 +25°C° 0 mm 2 mps 766 mmHg 65%
    22:00 +25°C° 0 mm 2 mps 766 mmHg 64%
    23:00 +25°C° 0 mm 2 mps 766 mmHg 65%
    Mostrar más